This is the latest recevied weather packets stored in our database for station/object K9TLD. If no packets are shown the sender has not sent any weather packets the latest 10 day(s).
| Time | Temp. | Humidity | Pressure | Rain* | Wind** | Luminosity | Snow |
|---|---|---|---|---|---|---|---|
| 1778287420 | 11.11° C | 46% | 1006 hPa | 0 mm | - | 7 W/m² | - |
| 1778287118 | 11.11° C | 46% | 1005.8 hPa | 0 mm | - | 9 W/m² | - |
| 1778286815 | 11.11° C | 46% | 1006.1 hPa | 0 mm | - | 12 W/m² | - |
| 1778286512 | 11.11° C | 46% | 1006.1 hPa | 0 mm | - | 13 W/m² | - |
| 1778286210 | 11.11° C | 46% | 1006.1 hPa | 0 mm | - | 14 W/m² | - |
| 1778285908 | 11.67° C | 47% | 1006.1 hPa | 0 mm | - | 16 W/m² | - |
| 1778285603 | 11.67° C | 44% | 1006.2 hPa | 0 mm | - | 18 W/m² | - |
| 1778285301 | 12.22° C | 42% | 1005.9 hPa | 0 mm | - | 21 W/m² | - |
| 1778284999 | 12.22° C | 42% | 1006.1 hPa | 0 mm | - | 23 W/m² | - |
| 1778284695 | 12.78° C | 41% | 1006 hPa | 0 mm | - | 31 W/m² | - |
| 1778284392 | 13.33° C | 39% | 1006.1 hPa | 0 mm | - | 41 W/m² | - |
| 1778284089 | 13.33° C | 38% | 1006 hPa | 0 mm | - | 49 W/m² | - |
| 1778283785 | 13.33° C | 38% | 1006.2 hPa | 0 mm | - | 48 W/m² | - |
| 1778283484 | 13.33° C | 36% | 1006.2 hPa | 0 mm | - | 62 W/m² | - |
| 1778283183 | 13.89° C | 37% | 1006.3 hPa | 0 mm | - | 48 W/m² | - |
| 1778282879 | 14.44° C | 37% | 1006.3 hPa | 0 mm | - | 76 W/m² | - |
| 1778282575 | 14.44° C | 37% | 1006.4 hPa | 0 mm | - | 92 W/m² | - |
| 1778282274 | 14.44° C | 35% | 1006.5 hPa | 0 mm | - | 71 W/m² | - |
| 1778281970 | 14.44° C | 35% | 1006.5 hPa | 0 mm | - | 82 W/m² | - |
| 1778281667 | 14.44° C | 35% | 1006.6 hPa | 0 mm | - | 125 W/m² | - |
| 1778281363 | 15° C | 35% | 1006.5 hPa | 0 mm | - | 140 W/m² | - |
| 1778281061 | 15° C | 35% | 1006.5 hPa | 0 mm | - | 155 W/m² | - |
| 1778280757 | 15° C | 35% | 1006.6 hPa | 0 mm | - | 165 W/m² | - |
| 1778280455 | 15° C | 35% | 1006.7 hPa | 0 mm | - | 163 W/m² | - |
| 1778280152 | 15° C | 35% | 1006.8 hPa | 0 mm | - | 191 W/m² | - |
* Rain latest hour (hover to see other rain measurements)
** Current wind speed in m/s (hover to see current wind gust speed)